Location: Darmstadt
(49.8706°N, 8.6494°E)
Time: 06:07:42
(UTC+01:00)

CZ-4 R/B - Pass Details

Date: 31 October 2020
Orbit: 532 x 598 km, 97.7° (Epoch: 03 December)

Event Time Altitude Azimuth Distance (km) Brightness Sun altitude
Rises 20:00:57 0° 207° (SSW) 2,687 5.0 -28.9°
Reaches altitude 10° 20:03:42 10° 228° (SW) 1,794 4.3 -29.4°
Maximum altitude 20:06:12 16° 269° (W) 1,428 4.1 -29.7°
Drops below altitude 10° 20:08:43 10° 310° (NW) 1,795 4.7 -30.1°
Sets 20:11:30 0° 332° (NNW) 2,691 5.4 -30.6°
